Tacoma, WA

3:12 AM PST on December 03, 2016 (GMT -0800)
McChord Air Force Base

Weather History for KTCM - June, 2013

Change the Weather History Date:

Friday, June 28, 2013

  Actual Average Record
Temperature  
Mean Temperature 72 °F -  
Max Temperature 85 °F 69 °F 90 °F (1995)
Min Temperature 60 °F 49 °F 43 °F (1964)
Cooling Degree Days 8    
Growing Degree Days 22 (Base 50)    
Moisture  
Dew Point 62 °F    
Average Humidity 78    
Maximum Humidity 100    
Minimum Humidity 45    
Precipitation  
Precipitation 0.01 in - - ()
Sea Level Pressure  
Sea Level Pressure 30.14 in    
Wind  
Wind Speed 4 mph (North)    
Max Wind Speed 38 mph    
Max Gust Speed 70 mph    
Visibility 9 miles    
Events Rain    
Averages and records for this station are not official NWS values.
T = Trace of Precipitation, MM = Missing Value Source: NWS Daily Summary

Daily Weather History Graph

Daily Weather History Graph

Search for Another Location

Airport or City:

Trip Planner

Search our weather history database for the weather conditions in past years. The results will help you decide how hot, cold, wet, or windy it might be!

Date:

Astronomy

Jun. 28, 2013 Rise Set
Actual Time 5:16 AM PDT 9:09 PM PDT
Civil Twilight 4:36 AM PDT 9:49 PM PDT
Nautical Twilight 3:42 AM PDT 10:43 PM PDT
Astronomical Twilight 2:20 AM PDT 12:05 AM PDT
Moon No Moon Rise 11:56 AM PDT (6/28)
Length of Visible Light 17h 12m
Length of Day
15h 52m
Waning Gibbous, 65% of the Moon is Illuminated
Jun 28
Waning Gibbous
Jun 29
Last Quarter
Jul 8
New
Jul 15
First Quarter
Jul 22
Full

Hourly Weather History & Observations

Time (PDT) Temp. Heat Index Dew Point Humidity Pressure Visibility Wind Dir Wind Speed Gust Speed Precip Events Conditions
12:58 AM 62.4 °F - 62.1 °F 99% 30.21 in 10.0 mi Calm Calm - N/A   Overcast
1:58 AM 61.2 °F - 61.0 °F 99% 30.21 in 5.0 mi Calm Calm - N/A   Mostly Cloudy
2:33 AM 60.8 °F - 60.8 °F 100% 30.19 in 10.0 mi SE 2.3 mph - N/A Rain Light Rain
2:43 AM 60.8 °F - 60.8 °F 100% 30.19 in 10.0 mi ESE 2.3 mph - N/A   Clear
2:52 AM 60.8 °F - 60.8 °F 100% 30.19 in 10.0 mi ESE 1.2 mph - N/A Rain Light Rain
2:58 AM 61.2 °F - 61.0 °F 99% 30.19 in 10.0 mi East 2.3 mph - 0.00 in Rain Light Rain
3:01 AM 60.8 °F - 60.8 °F 100% 30.18 in 10.0 mi Calm Calm - N/A   Clear
3:08 AM 60.8 °F - 60.8 °F 100% 30.18 in 10.0 mi Calm Calm - N/A Rain Light Rain
3:28 AM 62.6 °F - 60.8 °F 94% 30.18 in 10.0 mi Calm Calm - N/A   Clear
3:58 AM 61.9 °F - 61.7 °F 99% 30.19 in 10.0 mi South 1.2 mph - 0.00 in   Scattered Clouds
4:37 AM 62.6 °F - 62.6 °F 100% 30.17 in 10.0 mi NNW 4.6 mph - N/A   Overcast
4:42 AM 62.6 °F - 62.6 °F 100% 30.17 in 10.0 mi NNW 4.6 mph - N/A   Overcast
4:52 AM 62.6 °F - 62.6 °F 100% 30.17 in 10.0 mi North 5.8 mph - N/A   Overcast
4:58 AM 62.2 °F - 61.9 °F 99% 30.17 in 10.0 mi North 4.6 mph - N/A   Overcast
5:33 AM 60.8 °F - 60.8 °F 100% 30.17 in 10.0 mi NNE 4.6 mph - N/A   Overcast
5:58 AM 61.5 °F - 61.2 °F 99% 30.18 in 10.0 mi NE 4.6 mph - N/A   Overcast
6:48 AM 62.6 °F - 60.8 °F 94% 30.17 in 10.0 mi NNE 4.6 mph - N/A   Overcast
6:58 AM 61.7 °F - 61.5 °F 99% 30.18 in 10.0 mi NE 5.8 mph - N/A   Overcast
7:18 AM 62.6 °F - 60.8 °F 94% 30.16 in 10.0 mi North 6.9 mph - N/A   Overcast
7:23 AM 62.6 °F - 60.8 °F 94% 30.16 in 10.0 mi NNE 8.1 mph - N/A   Overcast
7:58 AM 62.8 °F - 62.2 °F 98% 30.17 in 10.0 mi ENE 6.9 mph - N/A   Overcast
8:53 AM 64.4 °F - 62.6 °F 94% 30.15 in 10.0 mi NE 3.5 mph - N/A   Overcast
8:58 AM 64.8 °F - 62.6 °F 93% 30.16 in 10.0 mi NNE 2.3 mph - N/A   Overcast
9:08 AM 64.4 °F - 62.6 °F 94% 30.15 in 10.0 mi NNE 3.5 mph - N/A   Overcast
9:18 AM 66.2 °F - 62.6 °F 88% 30.14 in 10.0 mi Calm Calm - N/A   Mostly Cloudy
9:28 AM 68.0 °F - 62.6 °F 83% 30.14 in 10.0 mi SSW 1.2 mph - N/A   Scattered Clouds
9:58 AM 68.2 °F - 62.4 °F 82% 30.14 in 10.0 mi Variable 4.6 mph - N/A   Partly Cloudy
10:58 AM 72.9 °F - 63.0 °F 71% 30.13 in 10.0 mi Variable 4.6 mph - N/A   Clear
11:58 AM 75.9 °F - 64.6 °F 68% 30.12 in 10.0 mi Variable 3.5 mph - N/A   Clear
12:58 PM 78.4 °F - 63.9 °F 61% 30.12 in 10.0 mi Variable 2.3 mph - N/A   Clear
1:43 PM 82.4 °F 82.9 °F 60.8 °F 48% 30.10 in 0.2 mi NNE 38.0 mph - N/A   Haze
1:45 PM 82.4 °F 82.5 °F 59.0 °F 45% 30.10 in 2.5 mi North 17.3 mph 70.2 mph N/A   Haze
1:46 PM 82.4 °F 82.5 °F 59.0 °F 45% 30.10 in 5.0 mi WNW 17.3 mph 70.2 mph N/A   Haze
1:48 PM 82.4 °F 82.5 °F 59.0 °F 45% 30.10 in 10.0 mi Variable 6.9 mph 70.2 mph N/A Rain Light Rain
1:53 PM 84.2 °F 84.4 °F 60.8 °F 45% 30.10 in 1.2 mi Variable 2.3 mph - N/A Rain Light Rain
1:58 PM 83.7 °F 83.9 °F 60.8 °F 46% 30.11 in 0.2 mi Variable 4.6 mph 17.3 mph 0.01 in Rain Light Rain
1:59 PM 82.4 °F 82.9 °F 60.8 °F 48% 30.10 in 0.2 mi Variable 3.5 mph 17.3 mph N/A   Haze
2:57 PM 84.2 °F 84.4 °F 60.8 °F 45% 30.10 in 10.0 mi WNW 6.9 mph - N/A   Clear
3:58 PM 85.5 °F 86.3 °F 63.0 °F 47% 30.08 in 10.0 mi WNW 10.4 mph - N/A   Clear
4:58 PM 84.9 °F 86.8 °F 65.3 °F 52% 30.08 in 10.0 mi WNW 8.1 mph - N/A   Clear
5:58 PM 84.0 °F 86.0 °F 65.5 °F 54% 30.07 in 10.0 mi West 10.4 mph - N/A   Clear
6:58 PM 82.2 °F 84.0 °F 65.3 °F 56% 30.08 in 10.0 mi West 10.4 mph - N/A   Clear
7:58 PM 78.4 °F - 62.6 °F 58% 30.08 in 10.0 mi WNW 10.4 mph - N/A   Clear
8:58 PM 75.0 °F - 60.8 °F 61% 30.09 in 10.0 mi West 8.1 mph - N/A   Clear
9:58 PM 72.7 °F - 59.7 °F 64% 30.11 in 10.0 mi WSW 4.6 mph - N/A   Mostly Cloudy
10:58 PM 70.0 °F - 58.3 °F 66% 30.11 in 10.0 mi SSW 3.5 mph - N/A   Scattered Clouds
11:58 PM 69.8 °F - 56.7 °F 63% 30.12 in 10.0 mi Calm Calm - N/A   Clear